Simultaneous Nadir Overpasses (SNOs) Predictions

Prediction of SNOs between GOES-17 and METOP-A Satellite Orbit:

Table of predicted SNOs for the next 14.0 days since TLE Epoch: 2/19/2022
Index Date Time (GOES-17) GOES-17 Lat,Lon METOP-A Lat,Lon Distance(km) Time Diff (sec)
1 02/19/2022 05:11:19 -0.01,-137.19 0.20,-136.35 96.76 80
2 02/19/2022 17:29:57 0.02,-137.19 0.68,-140.18 340.76 80
3 02/22/2022 05:12:57 -0.01,-137.14 0.13,-136.60 61.81 80
4 02/22/2022 17:31:46 0.01,-137.13 0.73,-140.49 381.39 80
5 02/24/2022 16:58:03 0.01,-137.09 -0.91,-132.88 479.46 80
6 02/25/2022 05:14:33 -0.01,-137.06 0.05,-136.85 25.01 80
7 02/25/2022 17:30:55 0.02,-137.06 0.81,-140.79 424.01 80
8 02/27/2022 17:02:31 0.02,-137.00 -0.81,-133.17 436.25 80
9 02/28/2022 05:16:09 -0.02,-136.97 -0.04,-137.09 12.96 80
10 02/28/2022 17:32:42 0.02,-136.97 0.95,-141.07 467.55 80
11 03/02/2022 17:04:19 0.02,-136.91 -0.76,-133.46 392.59 80
12 03/03/2022 05:17:44 -0.02,-136.88 -0.09,-137.34 51.29 80
